User: anonymous   Login
Location: Unspecified
(0.0000°N, 0.0000°E)
Time: 22:28:16
(UTC+00:00)
Language:

Envisat - Orbit

View from above orbital plane
View from above orbital plane
View from above satellite
View from above satellite

Ground track
Ground track

The orbit data is extracted from the following two-line orbital elements,

1 27386U 02009A   18346.53469292 -.00000003  00000-0  12471-4 0  9992
2 27386  98.1669  12.0199 0001339  92.1116  81.7069 14.37936595879158
Epoch (UTC): 12 December 2018 12:49:57
Eccentricity: 0.0001339
inclination: 98.1669°
perigee height: 764 km
apogee height: 766 km
right ascension of ascending node: 12.0199°
argument of perigee: 92.1116°
revolutions per day: 14.37936595
mean anomaly at epoch: 81.7069°
orbit number at epoch: 87915

The dashed part of the orbit path shows where the satellite is in the earth's shadow,  

DLR